Home > Weather > Bratislava > Past weeks

Flag for Slovakia Weather for the Past 2 Weeks in Bratislava, Slovakia

Now
61 °F

Passing clouds.


Feels Like: 61 °F
Forecast: 47 / 53 °F
Wind: 20 mph from Northwest

Location: Bratislava Ivanka

Current Time: May 3, 2016 at 3:10:27 PM

Latest Report: May 3, 2016 at 2:30 PM


Visibility: N/A

Pressure: 29.89 "Hg

Humidity: 63%

Dew Point: 48 °F

Location of BratislavaLocation

Historic Weather in Bratislava — Graph

°F

Bratislava Temperature Yesterday

Maximum temperature yesterday: 66 °F (at 1:00 PM)
Minimum temperature yesterday: 54 °F (at 5:00 AM)
Average temperature yesterday: 59 °F

High & Low Weather Summary for the Past Weeks

 TemperatureHumidityPressure
High68 °F (Apr 22, 2:00 PM)100% (Apr 28, 5:30 AM)30.36 "Hg (Apr 28, 5:30 AM)
Low30 °F (Apr 26, 6:00 AM)32% (Apr 25, 4:30 PM)29.59 "Hg (Apr 23, 7:00 PM)
Average51 °F61%29.98 "Hg
* Reported Apr 18 1:00 PM — May 3 1:30 PM, Bratislava, Weather by CustomWeather, © 2016

Note: Actual official high and low records may vary slightly from our data, if they occured in-between our weather recording intervals... More about our weather records

Advertising

Bratislava Weather History for the Previous 24 Hours

Scroll right to see more
 ConditionsComfort  
Time TempWeatherWind HumidityBarometerVisibility
1:30 PM
Tue, May 3
61 °FScattered clouds.21 mph68%29.92 "HgN/A
1:00 PM61 °FScattered clouds.15 mph63%29.92 "HgN/A
12:30 PM61 °FBroken clouds.13 mph63%29.92 "HgN/A
12:00 PM61 °FScattered clouds.12 mph59%29.92 "HgN/A
11:30 AM63 °FScattered clouds.13 mph59%29.92 "HgN/A
11:00 AM61 °FPassing clouds.13 mph63%29.92 "HgN/A
10:00 AM59 °FPassing clouds.13 mph68%29.95 "HgN/A
9:30 AM57 °FPassing clouds.12 mph72%29.95 "HgN/A
9:00 AM55 °FScattered clouds.16 mph72%29.95 "HgN/A
8:30 AM55 °FSunny.9 mph77%29.95 "Hg10 mi
8:00 AM55 °FPartly sunny.7 mph77%29.95 "HgN/A
7:30 AM54 °FBroken clouds.5 mph82%29.95 "HgN/A
7:00 AM54 °FPartly sunny.5 mph82%29.95 "HgN/A
6:30 AM52 °FLight rain. Clear.3 mph88%29.95 "HgN/A
6:00 AM52 °FLight rain. Clear.8 mph88%29.95 "HgN/A
5:30 AM52 °FLight rain. Passing clouds.8 mph88%29.95 "HgN/A
5:00 AM52 °FLight rain. Partly cloudy.3 mph94%29.95 "HgN/A
4:30 AM52 °FLight rain. Partly cloudy.7 mph94%29.95 "HgN/A
3:30 AM52 °FLight rain. Clear.5 mph94%29.95 "HgN/A
3:00 AM54 °FRain. Mostly cloudy.5 mph88%29.98 "Hg4 mi
2:30 AM54 °FLight rain. Clear.5 mph88%29.98 "HgN/A
2:00 AM54 °FLight rain. Clear.3 mph88%29.98 "HgN/A
1:30 AM52 °FClear.2 mph94%29.98 "Hg10 mi
1:00 AM52 °FPassing clouds.5 mph94%29.98 "HgN/A
12:30 AM54 °FClear.6 mph82%29.98 "Hg10 mi
12:00 AM57 °FPassing clouds.3 mph67%29.98 "HgN/A
11:30 PM
Mon, May 2
57 °FClear.6 mph67%29.98 "Hg10 mi
11:00 PM55 °FClear.5 mph72%29.98 "Hg10 mi
10:30 PM57 °FClear.6 mph67%29.98 "Hg10 mi
10:00 PM57 °FClear.7 mph72%29.98 "Hg10 mi
9:30 PM59 °FClear.7 mph68%29.98 "Hg10 mi
9:00 PM57 °FSunny.6 mph72%29.98 "Hg10 mi
8:30 PM59 °FScattered clouds.6 mph68%29.98 "HgN/A
8:00 PM59 °FScattered showers. Scattered clouds.7 mph68%29.98 "HgN/A
7:30 PM61 °FScattered showers. Scattered clouds.7 mph63%29.98 "HgN/A
7:00 PM61 °FScattered showers. Scattered clouds.5 mph63%29.98 "HgN/A
6:30 PM59 °FScattered showers. Scattered clouds.5 mph72%29.98 "HgN/A
6:00 PM61 °FSprinkles. Broken clouds.6 mph72%30.01 "HgN/A
5:30 PM61 °FBroken clouds.9 mph72%30.01 "HgN/A
5:00 PM63 °FBroken clouds.8 mph56%29.98 "HgN/A
4:30 PM64 °FSunny.9 mph49%29.98 "Hg10 mi
4:00 PM63 °FSunny.10 mph59%29.98 "Hg10 mi
3:30 PM61 °FSprinkles. Partly sunny.15 mph63%30.01 "HgN/A
3:00 PM61 °FSprinkles. Partly sunny.16 mph72%30.01 "HgN/A
Weather by CustomWeather, © 2016

See weather overviewHow to use our weather pages